owner,sensor,date,latitude,longitude,air_temperature,qcFlag 
COMPS,ioos:station:USF.COMPS:C10:1,2019-05-10T16:35:00,27.1690,-82.9260,25.79,11111222 
COMPS,ioos:station:USF.COMPS:C10:1,2019-05-10T17:35:00,27.1690,-82.9260,26.08,11111222 
COMPS,ioos:station:USF.COMPS:C10:1,2019-05-10T18:35:00,27.1690,-82.9260,26.26,11111222 
COMPS,ioos:station:USF.COMPS:C10:1,2019-05-10T19:35:00,27.1690,-82.9260,26.75,11111222 
COMPS,ioos:station:USF.COMPS:C10:1,2019-05-10T20:35:00,27.1690,-82.9260,26.64,11111222 
COMPS,ioos:station:USF.COMPS:C10:1,2019-05-10T21:35:00,27.1690,-82.9260,26.42,11111222 
COMPS,ioos:station:USF.COMPS:C10:1,2019-05-10T22:35:00,27.1690,-82.9260,26.31,11111222 
COMPS,ioos:station:USF.COMPS:C10:1,2019-05-10T23:35:00,27.1690,-82.9260,26.16,11111222 
COMPS,ioos:station:USF.COMPS:C10:1,2019-05-11T00:35:00,27.1690,-82.9260,26.0,11111222 
COMPS,ioos:station:USF.COMPS:C10:1,2019-05-11T02:35:00,27.1690,-82.9260,25.1,11111222 
COMPS,ioos:station:USF.COMPS:C10:1,2019-05-11T03:35:00,27.1690,-82.9260,24.19,11111222 
COMPS,ioos:station:USF.COMPS:C10:1,2019-05-11T05:35:00,27.1690,-82.9260,24.52,11111222 
COMPS,ioos:station:USF.COMPS:C10:1,2019-05-11T06:35:00,27.1690,-82.9260,24.8,11111222 
COMPS,ioos:station:USF.COMPS:C10:1,2019-05-11T07:35:00,27.1690,-82.9260,25.09,11111222 
COMPS,ioos:station:USF.COMPS:C10:1,2019-05-11T08:35:00,27.1690,-82.9260,25.02,11111222 
COMPS,ioos:station:USF.COMPS:C10:1,2019-05-11T09:35:00,27.1690,-82.9260,24.77,11111222 
COMPS,ioos:station:USF.COMPS:C10:1,2019-05-11T10:35:00,27.1690,-82.9260,24.64,11111222 
COMPS,ioos:station:USF.COMPS:C10:1,2019-05-11T11:35:00,27.1690,-82.9260,24.71,11111222 
COMPS,ioos:station:USF.COMPS:C10:1,2019-05-11T12:35:00,27.1690,-82.9260,24.9,11111222 
COMPS,ioos:station:USF.COMPS:C10:1,2019-05-13T13:35:00,27.1690,-82.9260,26.43,11111222 
COMPS,ioos:station:USF.COMPS:C10:1,2019-05-13T14:35:00,27.1690,-82.9260,26.47,11111222 
COMPS,ioos:station:USF.COMPS:C10:1,2019-05-13T15:35:00,27.1690,-82.9260,26.51,11111222 
COMPS,ioos:station:USF.COMPS:C10:1,2019-05-13T16:35:00,27.1690,-82.9260,26.68,11111222 
COMPS,ioos:station:USF.COMPS:C10:1,2019-05-13T17:35:00,27.1690,-82.9260,26.71,11111222 
COMPS,ioos:station:USF.COMPS:C10:1,2019-05-13T18:35:00,27.1690,-82.9260,26.77,11111222 
COMPS,ioos:station:USF.COMPS:C10:1,2019-05-13T19:35:00,27.1690,-82.9260,23.49,11111222 
COMPS,ioos:station:USF.COMPS:C10:1,2019-05-13T20:35:00,27.1690,-82.9260,23.21,11111222 
COMPS,ioos:station:USF.COMPS:C10:1,2019-05-13T21:35:00,27.1690,-82.9260,24.91,11111222 
COMPS,ioos:station:USF.COMPS:C10:1,2019-05-13T22:35:00,27.1690,-82.9260,26.76,11111222 
COMPS,ioos:station:USF.COMPS:C10:1,2019-05-13T23:35:00,27.1690,-82.9260,27.47,11111222 
COMPS,ioos:station:USF.COMPS:C10:1,2019-05-14T00:35:00,27.1690,-82.9260,26.87,11111222 
COMPS,ioos:station:USF.COMPS:C10:1,2019-05-14T01:35:00,27.1690,-82.9260,26.71,11111222 
COMPS,ioos:station:USF.COMPS:C10:1,2019-05-14T02:35:00,27.1690,-82.9260,26.36,11111222 
COMPS,ioos:station:USF.COMPS:C10:1,2019-05-14T03:35:00,27.1690,-82.9260,26.16,11111222 
COMPS,ioos:station:USF.COMPS:C10:1,2019-05-14T04:35:00,27.1690,-82.9260,25.97,11111222 
COMPS,ioos:station:USF.COMPS:C10:1,2019-05-14T05:35:00,27.1690,-82.9260,25.91,11111222 
COMPS,ioos:station:USF.COMPS:C10:1,2019-05-14T06:35:00,27.1690,-82.9260,26.0,11111222 
COMPS,ioos:station:USF.COMPS:C10:1,2019-05-14T07:35:00,27.1690,-82.9260,25.66,11111222 
COMPS,ioos:station:USF.COMPS:C10:1,2019-05-14T08:35:00,27.1690,-82.9260,25.65,11111222 
COMPS,ioos:station:USF.COMPS:C10:1,2019-05-14T09:35:00,27.1690,-82.9260,25.47,11111222 
COMPS,ioos:station:USF.COMPS:C10:1,2019-05-14T10:35:00,27.1690,-82.9260,25.36,11111222 
COMPS,ioos:station:USF.COMPS:C10:1,2019-05-14T11:35:00,27.1690,-82.9260,25.35,11111222 
COMPS,ioos:station:USF.COMPS:C10:1,2019-05-14T12:35:00,27.1690,-82.9260,25.53,11111222 
COMPS,ioos:station:USF.COMPS:C10:1,2019-05-14T13:35:00,27.1690,-82.9260,25.66,11111222 
COMPS,ioos:station:USF.COMPS:C10:1,2019-05-14T14:35:00,27.1690,-82.9260,25.69,11111222 
COMPS,ioos:station:USF.COMPS:C10:1,2019-05-14T15:35:00,27.1690,-82.9260,25.87,11111222 
COMPS,ioos:station:USF.COMPS:C10:1,2019-05-14T16:35:00,27.1690,-82.9260,25.83,11111222 
COMPS,ioos:station:USF.COMPS:C10:1,2019-05-14T17:35:00,27.1690,-82.9260,25.63,11111222 
COMPS,ioos:station:USF.COMPS:C10:1,2019-05-14T18:35:00,27.1690,-82.9260,25.72,11111222 
COMPS,ioos:station:USF.COMPS:C10:1,2019-05-14T19:35:00,27.1690,-82.9260,25.18,11111222 
COMPS,ioos:station:USF.COMPS:C10:1,2019-05-14T20:35:00,27.1690,-82.9260,25.05,11111222 
COMPS,ioos:station:USF.COMPS:C10:1,2019-05-14T21:35:00,27.1690,-82.9260,24.92,11111222 
COMPS,ioos:station:USF.COMPS:C10:1,2019-05-14T22:35:00,27.1690,-82.9260,25.49,11111222 
COMPS,ioos:station:USF.COMPS:C10:1,2019-05-14T23:35:00,27.1690,-82.9260,25.31,11111222 
COMPS,ioos:station:USF.COMPS:C10:1,2019-05-15T00:35:00,27.1690,-82.9260,25.31,11111222 
COMPS,ioos:station:USF.COMPS:C10:1,2019-05-15T01:35:00,27.1690,-82.9260,25.25,11111222 
COMPS,ioos:station:USF.COMPS:C10:1,2019-05-15T02:35:00,27.1690,-82.9260,25.2,11111222 
COMPS,ioos:station:USF.COMPS:C10:1,2019-05-15T03:35:00,27.1690,-82.9260,25.22,11111222 
COMPS,ioos:station:USF.COMPS:C10:1,2019-05-15T04:35:00,27.1690,-82.9260,25.24,11111222 
COMPS,ioos:station:USF.COMPS:C10:1,2019-05-15T05:35:00,27.1690,-82.9260,25.29,11111222 
COMPS,ioos:station:USF.COMPS:C10:1,2019-05-15T06:35:00,27.1690,-82.9260,25.26,11111222 
COMPS,ioos:station:USF.COMPS:C10:1,2019-05-15T08:35:00,27.1690,-82.9260,25.36,11111222 
COMPS,ioos:station:USF.COMPS:C10:1,2019-05-15T09:35:00,27.1690,-82.9260,25.13,11111222 
COMPS,ioos:station:USF.COMPS:C10:1,2019-05-15T10:35:00,27.1690,-82.9260,24.96,11111222 
COMPS,ioos:station:USF.COMPS:C10:1,2019-05-15T11:35:00,27.1690,-82.9260,25.13,11111222 
COMPS,ioos:station:USF.COMPS:C10:1,2019-05-15T12:35:00,27.1690,-82.9260,24.71,11111222 
COMPS,ioos:station:USF.COMPS:C10:1,2019-05-15T13:35:00,27.1690,-82.9260,24.96,11111222 
COMPS,ioos:station:USF.COMPS:C10:1,2019-05-15T14:35:00,27.1690,-82.9260,25.26,11111222 
COMPS,ioos:station:USF.COMPS:C10:1,2019-05-15T15:35:00,27.1690,-82.9260,25.24,11111222 
COMPS,ioos:station:USF.COMPS:C10:1,2019-05-15T19:35:00,27.1690,-82.9260,25.91,11111222 
COMPS,ioos:station:USF.COMPS:C10:1,2019-05-15T20:35:00,27.1690,-82.9260,25.91,11111222 
COMPS,ioos:station:USF.COMPS:C10:1,2019-05-15T21:35:00,27.1690,-82.9260,25.69,11111222 
COMPS,ioos:station:USF.COMPS:C10:1,2019-05-15T22:35:00,27.1690,-82.9260,25.63,11111222 
COMPS,ioos:station:USF.COMPS:C10:1,2019-05-15T23:35:00,27.1690,-82.9260,25.47,11111222 
COMPS,ioos:station:USF.COMPS:C10:1,2019-05-16T00:35:00,27.1690,-82.9260,25.34,11111222 
COMPS,ioos:station:USF.COMPS:C10:1,2019-05-16T01:35:00,27.1690,-82.9260,25.53,11111222 
COMPS,ioos:station:USF.COMPS:C10:1,2019-05-16T02:35:00,27.1690,-82.9260,25.41,11111222 
COMPS,ioos:station:USF.COMPS:C10:1,2019-05-16T03:35:00,27.1690,-82.9260,25.45,11111222 
COMPS,ioos:station:USF.COMPS:C10:1,2019-05-16T04:35:00,27.1690,-82.9260,25.8,11111222 
COMPS,ioos:station:USF.COMPS:C10:1,2019-05-16T06:35:00,27.1690,-82.9260,25.18,11111222 
COMPS,ioos:station:USF.COMPS:C10:1,2019-05-16T07:35:00,27.1690,-82.9260,24.45,11111222 
COMPS,ioos:station:USF.COMPS:C10:1,2019-05-16T10:35:00,27.1690,-82.9260,24.12,11111222 
COMPS,ioos:station:USF.COMPS:C10:1,2019-05-16T11:35:00,27.1690,-82.9260,24.14,11111222 
COMPS,ioos:station:USF.COMPS:C10:1,2019-05-16T12:35:00,27.1690,-82.9260,24.18,11111222 
COMPS,ioos:station:USF.COMPS:C10:1,2019-05-16T14:35:00,27.1690,-82.9260,24.44,11111222 
COMPS,ioos:station:USF.COMPS:C10:1,2019-05-16T15:35:00,27.1690,-82.9260,25.16,11111222 
COMPS,ioos:station:USF.COMPS:C10:1,2019-05-16T16:35:00,27.1690,-82.9260,25.81,11111222 
COMPS,ioos:station:USF.COMPS:C10:1,2019-05-16T17:35:00,27.1690,-82.9260,26.12,11111222 
COMPS,ioos:station:USF.COMPS:C10:1,2019-05-16T18:35:00,27.1690,-82.9260,26.12,11111222 
COMPS,ioos:station:USF.COMPS:C10:1,2019-05-16T19:35:00,27.1690,-82.9260,26.5,11111222 
COMPS,ioos:station:USF.COMPS:C10:1,2019-05-16T20:35:00,27.1690,-82.9260,26.8,11111222 
COMPS,ioos:station:USF.COMPS:C10:1,2019-05-16T21:35:00,27.1690,-82.9260,26.48,11111222 
COMPS,ioos:station:USF.COMPS:C10:1,2019-05-16T22:35:00,27.1690,-82.9260,26.75,11111222 
COMPS,ioos:station:USF.COMPS:C10:1,2019-05-16T23:35:00,27.1690,-82.9260,26.4,11111222 
COMPS,ioos:station:USF.COMPS:C10:1,2019-05-17T00:35:00,27.1690,-82.9260,26.08,11111222 
COMPS,ioos:station:USF.COMPS:C10:1,2019-05-17T01:35:00,27.1690,-82.9260,26.05,11111222 
COMPS,ioos:station:USF.COMPS:C10:1,2019-05-17T03:35:00,27.1690,-82.9260,25.15,11111222 
COMPS,ioos:station:USF.COMPS:C10:1,2019-05-17T04:35:00,27.1690,-82.9260,26.04,11111222 
COMPS,ioos:station:USF.COMPS:C10:1,2019-05-17T05:35:00,27.1690,-82.9260,25.63,11111222 
COMPS,ioos:station:USF.COMPS:C10:1,2019-05-17T06:35:00,27.1690,-82.9260,25.45,11111222 
COMPS,ioos:station:USF.COMPS:C10:1,2019-05-17T07:35:00,27.1690,-82.9260,25.24,11111222 
COMPS,ioos:station:USF.COMPS:C10:1,2019-05-17T08:35:00,27.1690,-82.9260,24.8,11111222 
COMPS,ioos:station:USF.COMPS:C10:1,2019-05-17T09:35:00,27.1690,-82.9260,24.68,11111222 
COMPS,ioos:station:USF.COMPS:C10:1,2019-05-17T10:35:00,27.1690,-82.9260,24.6,11111222 
COMPS,ioos:station:USF.COMPS:C10:1,2019-05-17T11:35:00,27.1690,-82.9260,24.56,11111222 
COMPS,ioos:station:USF.COMPS:C10:1,2019-05-17T12:35:00,27.1690,-82.9260,24.26,11111222 
COMPS,ioos:station:USF.COMPS:C10:1,2019-05-17T13:35:00,27.1690,-82.9260,24.59,11111222 
COMPS,ioos:station:USF.COMPS:C10:1,2019-05-17T14:35:00,27.1690,-82.9260,24.8,11111222 
COMPS,ioos:station:USF.COMPS:C10:1,2019-05-17T15:35:00,27.1690,-82.9260,25.19,11111222 
COMPS,ioos:station:USF.COMPS:C10:1,2019-05-17T16:35:00,27.1690,-82.9260,25.68,11111222 
COMPS,ioos:station:USF.COMPS:C10:1,2019-05-17T17:35:00,27.1690,-82.9260,26.13,11111222 
COMPS,ioos:station:USF.COMPS:C10:1,2019-05-17T18:35:00,27.1690,-82.9260,27.29,11111222 
COMPS,ioos:station:USF.COMPS:C10:1,2019-05-17T19:35:00,27.1690,-82.9260,26.63,11111222 
COMPS,ioos:station:USF.COMPS:C10:1,2019-05-17T20:35:00,27.1690,-82.9260,26.7,11111222 
COMPS,ioos:station:USF.COMPS:C10:1,2019-05-17T21:35:00,27.1690,-82.9260,26.98,11111222 
COMPS,ioos:station:USF.COMPS:C10:1,2019-05-17T22:35:00,27.1690,-82.9260,27.21,11111222 
COMPS,ioos:station:USF.COMPS:C10:1,2019-05-17T23:35:00,27.1690,-82.9260,26.94,11111222 
COMPS,ioos:station:USF.COMPS:C10:1,2019-05-18T00:35:00,27.1690,-82.9260,26.58,11111222 
COMPS,ioos:station:USF.COMPS:C10:1,2019-05-18T01:35:00,27.1690,-82.9260,26.69,11111222 
COMPS,ioos:station:USF.COMPS:C10:1,2019-05-18T02:35:00,27.1690,-82.9260,26.82,11111222 
COMPS,ioos:station:USF.COMPS:C10:1,2019-05-18T03:35:00,27.1690,-82.9260,26.61,11111222 
COMPS,ioos:station:USF.COMPS:C10:1,2019-05-18T04:35:00,27.1690,-82.9260,26.22,11111222 
COMPS,ioos:station:USF.COMPS:C10:1,2019-05-18T05:35:00,27.1690,-82.9260,25.87,11111222 
COMPS,ioos:station:USF.COMPS:C10:1,2019-05-18T06:35:00,27.1690,-82.9260,25.64,11111222 
COMPS,ioos:station:USF.COMPS:C10:1,2019-05-18T07:35:00,27.1690,-82.9260,25.42,11111222 
COMPS,ioos:station:USF.COMPS:C10:1,2019-05-18T08:35:00,27.1690,-82.9260,25.27,11111222 
COMPS,ioos:station:USF.COMPS:C10:1,2019-05-18T09:35:00,27.1690,-82.9260,25.17,11111222 
COMPS,ioos:station:USF.COMPS:C10:1,2019-05-18T10:35:00,27.1690,-82.9260,25.05,11111222 
COMPS,ioos:station:USF.COMPS:C10:1,2019-05-18T11:35:00,27.1690,-82.9260,24.23,11111222 
COMPS,ioos:station:USF.COMPS:C10:1,2019-05-18T12:35:00,27.1690,-82.9260,24.3,11111222 
COMPS,ioos:station:USF.COMPS:C10:1,2019-05-18T14:35:00,27.1690,-82.9260,24.5,11111222 
COMPS,ioos:station:USF.COMPS:C10:1,2019-05-18T15:35:00,27.1690,-82.9260,24.77,11111222 
COMPS,ioos:station:USF.COMPS:C10:1,2019-05-18T16:35:00,27.1690,-82.9260,25.1,11111222 
COMPS,ioos:station:USF.COMPS:C10:1,2019-05-18T17:35:00,27.1690,-82.9260,25.52,11111222 
COMPS,ioos:station:USF.COMPS:C10:1,2019-05-18T18:35:00,27.1690,-82.9260,26.13,11111222 
COMPS,ioos:station:USF.COMPS:C10:1,2019-05-18T19:35:00,27.1690,-82.9260,26.1,11111222 
COMPS,ioos:station:USF.COMPS:C10:1,2019-05-18T20:35:00,27.1690,-82.9260,26.18,11111222 
COMPS,ioos:station:USF.COMPS:C10:1,2019-05-18T21:35:00,27.1690,-82.9260,26.32,11111222 
COMPS,ioos:station:USF.COMPS:C10:1,2019-05-18T22:35:00,27.1690,-82.9260,26.52,11111222 
COMPS,ioos:station:USF.COMPS:C10:1,2019-05-18T23:35:00,27.1690,-82.9260,26.51,11111222 
COMPS,ioos:station:USF.COMPS:C10:1,2019-05-19T00:35:00,27.1690,-82.9260,26.51,11111222 
COMPS,ioos:station:USF.COMPS:C10:1,2019-05-19T01:35:00,27.1690,-82.9260,26.56,11111222 
COMPS,ioos:station:USF.COMPS:C10:1,2019-05-19T02:35:00,27.1690,-82.9260,26.72,11111222 
COMPS,ioos:station:USF.COMPS:C10:1,2019-05-19T04:35:00,27.1690,-82.9260,26.3,11111222 
COMPS,ioos:station:USF.COMPS:C10:1,2019-05-19T05:35:00,27.1690,-82.9260,25.44,11111222 
COMPS,ioos:station:USF.COMPS:C10:1,2019-05-19T06:35:00,27.1690,-82.9260,25.38,11111222 
COMPS,ioos:station:USF.COMPS:C10:1,2019-05-19T07:35:00,27.1690,-82.9260,25.13,11111222 
COMPS,ioos:station:USF.COMPS:C10:1,2019-05-19T08:35:00,27.1690,-82.9260,25.02,11111222 
COMPS,ioos:station:USF.COMPS:C10:1,2019-05-19T09:35:00,27.1690,-82.9260,25.08,11111222 
COMPS,ioos:station:USF.COMPS:C10:1,2019-05-19T10:35:00,27.1690,-82.9260,24.97,11111222 
COMPS,ioos:station:USF.COMPS:C10:1,2019-05-19T11:35:00,27.1690,-82.9260,24.99,11111222 
COMPS,ioos:station:USF.COMPS:C10:1,2019-05-19T12:35:00,27.1690,-82.9260,24.76,11111222 
COMPS,ioos:station:USF.COMPS:C10:1,2019-05-19T13:35:00,27.1690,-82.9260,24.98,11111222 
COMPS,ioos:station:USF.COMPS:C10:1,2019-05-19T14:35:00,27.1690,-82.9260,25.39,11111222 
COMPS,ioos:station:USF.COMPS:C10:1,2019-05-19T15:35:00,27.1690,-82.9260,25.72,11111222 
COMPS,ioos:station:USF.COMPS:C10:1,2019-05-19T16:35:00,27.1690,-82.9260,26.16,11111222 
COMPS,ioos:station:USF.COMPS:C10:1,2019-05-19T17:35:00,27.1690,-82.9260,26.43,11111222 
COMPS,ioos:station:USF.COMPS:C10:1,2019-05-19T18:35:00,27.1690,-82.9260,26.53,11111222 
COMPS,ioos:station:USF.COMPS:C10:1,2019-05-19T19:35:00,27.1690,-82.9260,26.68,11111222 
COMPS,ioos:station:USF.COMPS:C10:1,2019-05-19T20:35:00,27.1690,-82.9260,26.75,11111222 
COMPS,ioos:station:USF.COMPS:C10:1,2019-05-19T21:35:00,27.1690,-82.9260,27.0,11111222 
COMPS,ioos:station:USF.COMPS:C10:1,2019-05-19T22:35:00,27.1690,-82.9260,27.0,11111222 
COMPS,ioos:station:USF.COMPS:C10:1,2019-05-19T23:35:00,27.1690,-82.9260,26.78,11111222 
COMPS,ioos:station:USF.COMPS:C10:1,2019-05-20T00:35:00,27.1690,-82.9260,26.58,11111222 
COMPS,ioos:station:USF.COMPS:C10:1,2019-05-20T01:35:00,27.1690,-82.9260,26.59,11111222 
COMPS,ioos:station:USF.COMPS:C10:1,2019-05-20T02:35:00,27.1690,-82.9260,26.21,11111222 
COMPS,ioos:station:USF.COMPS:C10:1,2019-05-20T03:35:00,27.1690,-82.9260,26.49,11111222 
COMPS,ioos:station:USF.COMPS:C10:1,2019-05-20T05:35:00,27.1690,-82.9260,26.8,11111222 
COMPS,ioos:station:USF.COMPS:C10:1,2019-05-20T08:35:00,27.1690,-82.9260,25.83,11111222 
COMPS,ioos:station:USF.COMPS:C10:1,2019-05-20T09:35:00,27.1690,-82.9260,25.74,11111222 
COMPS,ioos:station:USF.COMPS:C10:1,2019-05-20T10:35:00,27.1690,-82.9260,25.18,11111222 
COMPS,ioos:station:USF.COMPS:C10:1,2019-05-20T11:35:00,27.1690,-82.9260,25.28,11111222 
COMPS,ioos:station:USF.COMPS:C10:1,2019-05-20T12:35:00,27.1690,-82.9260,25.56,11111222 
COMPS,ioos:station:USF.COMPS:C10:1,2019-05-20T13:35:00,27.1690,-82.9260,25.38,11111222 
COMPS,ioos:station:USF.COMPS:C10:1,2019-05-20T14:35:00,27.1690,-82.9260,25.64,11111222 
COMPS,ioos:station:USF.COMPS:C10:1,2019-05-20T15:35:00,27.1690,-82.9260,26.07,11111222 
COMPS,ioos:station:USF.COMPS:C10:1,2019-05-20T16:35:00,27.1690,-82.9260,26.17,11111222 
COMPS,ioos:station:USF.COMPS:C10:1,2019-05-20T17:35:00,27.1690,-82.9260,26.42,11111222 
COMPS,ioos:station:USF.COMPS:C10:1,2019-05-20T18:35:00,27.1690,-82.9260,26.53,11111222 
COMPS,ioos:station:USF.COMPS:C10:1,2019-05-20T19:35:00,27.1690,-82.9260,26.76,11111222 
COMPS,ioos:station:USF.COMPS:C10:1,2019-05-20T20:35:00,27.1690,-82.9260,27.04,11111222 
COMPS,ioos:station:USF.COMPS:C10:1,2019-05-20T21:35:00,27.1690,-82.9260,27.29,11111222 
COMPS,ioos:station:USF.COMPS:C10:1,2019-05-20T22:35:00,27.1690,-82.9260,27.2,11111222 
COMPS,ioos:station:USF.COMPS:C10:1,2019-05-20T23:35:00,27.1690,-82.9260,27.04,11111222 
COMPS,ioos:station:USF.COMPS:C10:1,2019-05-21T00:35:00,27.1690,-82.9260,26.82,11111222 
COMPS,ioos:station:USF.COMPS:C10:1,2019-05-21T01:35:00,27.1690,-82.9260,26.71,11111222 
COMPS,ioos:station:USF.COMPS:C10:1,2019-05-21T02:35:00,27.1690,-82.9260,26.93,11111222 
COMPS,ioos:station:USF.COMPS:C10:1,2019-05-21T03:35:00,27.1690,-82.9260,26.97,11111222 
COMPS,ioos:station:USF.COMPS:C10:1,2019-05-21T04:35:00,27.1690,-82.9260,26.76,11111222 
COMPS,ioos:station:USF.COMPS:C10:1,2019-05-21T05:35:00,27.1690,-82.9260,26.54,11111222 
COMPS,ioos:station:USF.COMPS:C10:1,2019-05-21T06:35:00,27.1690,-82.9260,26.58,11111222 
COMPS,ioos:station:USF.COMPS:C10:1,2019-05-21T07:35:00,27.1690,-82.9260,26.66,11111222 
COMPS,ioos:station:USF.COMPS:C10:1,2019-05-21T08:35:00,27.1690,-82.9260,26.6,11111222 
COMPS,ioos:station:USF.COMPS:C10:1,2019-05-21T09:35:00,27.1690,-82.9260,26.28,11111222 
COMPS,ioos:station:USF.COMPS:C10:1,2019-05-21T10:35:00,27.1690,-82.9260,26.13,11111222 
COMPS,ioos:station:USF.COMPS:C10:1,2019-05-21T11:35:00,27.1690,-82.9260,25.56,11111222 
COMPS,ioos:station:USF.COMPS:C10:1,2019-05-21T12:35:00,27.1690,-82.9260,25.76,11111222 
COMPS,ioos:station:USF.COMPS:C10:1,2019-05-21T13:35:00,27.1690,-82.9260,25.9,11111222 
COMPS,ioos:station:USF.COMPS:C10:1,2019-05-21T14:35:00,27.1690,-82.9260,26.41,11111222 
COMPS,ioos:station:USF.COMPS:C10:1,2019-05-21T15:35:00,27.1690,-82.9260,26.77,11111222 
COMPS,ioos:station:USF.COMPS:C10:1,2019-05-21T16:35:00,27.1690,-82.9260,27.19,11111222 
COMPS,ioos:station:USF.COMPS:C10:1,2019-05-21T17:35:00,27.1690,-82.9260,27.06,11111222 
COMPS,ioos:station:USF.COMPS:C10:1,2019-05-21T18:35:00,27.1690,-82.9260,27.75,11111222 
COMPS,ioos:station:USF.COMPS:C10:1,2019-05-21T19:35:00,27.1690,-82.9260,28.02,11111222 
COMPS,ioos:station:USF.COMPS:C10:1,2019-05-21T20:35:00,27.1690,-82.9260,27.72,11111222 
COMPS,ioos:station:USF.COMPS:C10:1,2019-05-21T21:35:00,27.1690,-82.9260,27.65,11111222 
COMPS,ioos:station:USF.COMPS:C10:1,2019-05-21T22:35:00,27.1690,-82.9260,27.77,11111222 
COMPS,ioos:station:USF.COMPS:C10:1,2019-05-21T23:35:00,27.1690,-82.9260,27.5,11111222 
COMPS,ioos:station:USF.COMPS:C10:1,2019-05-22T00:35:00,27.1690,-82.9260,27.07,11111222 
COMPS,ioos:station:USF.COMPS:C10:1,2019-05-22T01:35:00,27.1690,-82.9260,26.99,11111222 
COMPS,ioos:station:USF.COMPS:C10:1,2019-05-22T02:35:00,27.1690,-82.9260,26.78,11111222 
COMPS,ioos:station:USF.COMPS:C10:1,2019-05-22T03:35:00,27.1690,-82.9260,26.9,11111222 
COMPS,ioos:station:USF.COMPS:C10:1,2019-05-22T05:35:00,27.1690,-82.9260,27.03,11111222 
COMPS,ioos:station:USF.COMPS:C10:1,2019-05-22T06:35:00,27.1690,-82.9260,26.89,11111222 
COMPS,ioos:station:USF.COMPS:C10:1,2019-05-22T07:35:00,27.1690,-82.9260,26.85,11111222 
COMPS,ioos:station:USF.COMPS:C10:1,2019-05-22T08:35:00,27.1690,-82.9260,26.13,11111222 
COMPS,ioos:station:USF.COMPS:C10:1,2019-05-22T09:35:00,27.1690,-82.9260,25.25,11111222 
COMPS,ioos:station:USF.COMPS:C10:1,2019-05-22T10:35:00,27.1690,-82.9260,25.46,11111222 
COMPS,ioos:station:USF.COMPS:C10:1,2019-05-22T11:35:00,27.1690,-82.9260,26.24,11111222 
COMPS,ioos:station:USF.COMPS:C10:1,2019-05-22T12:35:00,27.1690,-82.9260,27.04,11111222 
COMPS,ioos:station:USF.COMPS:C10:1,2019-05-22T13:35:00,27.1690,-82.9260,26.93,11111222 
COMPS,ioos:station:USF.COMPS:C10:1,2019-05-22T14:35:00,27.1690,-82.9260,27.05,11111222 
COMPS,ioos:station:USF.COMPS:C10:1,2019-05-22T15:35:00,27.1690,-82.9260,27.22,11111222 
COMPS,ioos:station:USF.COMPS:C10:1,2019-05-22T16:35:00,27.1690,-82.9260,27.25,11111222 
COMPS,ioos:station:USF.COMPS:C10:1,2019-05-22T17:35:00,27.1690,-82.9260,27.12,11111222 
COMPS,ioos:station:USF.COMPS:C10:1,2019-05-22T18:35:00,27.1690,-82.9260,27.55,11111222 
COMPS,ioos:station:USF.COMPS:C10:1,2019-05-22T19:35:00,27.1690,-82.9260,27.57,11111222 
COMPS,ioos:station:USF.COMPS:C10:1,2019-05-22T20:35:00,27.1690,-82.9260,27.84,11111222 
COMPS,ioos:station:USF.COMPS:C10:1,2019-05-22T21:35:00,27.1690,-82.9260,28.13,11111222 
COMPS,ioos:station:USF.COMPS:C10:1,2019-05-22T22:35:00,27.1690,-82.9260,27.98,11111222 
COMPS,ioos:station:USF.COMPS:C10:1,2019-05-22T23:35:00,27.1690,-82.9260,27.88,11111222 
COMPS,ioos:station:USF.COMPS:C10:1,2019-05-23T00:35:00,27.1690,-82.9260,27.76,11111222 
COMPS,ioos:station:USF.COMPS:C10:1,2019-05-23T02:35:00,27.1690,-82.9260,27.84,11111222 
COMPS,ioos:station:USF.COMPS:C10:1,2019-05-23T03:35:00,27.1690,-82.9260,26.74,11111222 
COMPS,ioos:station:USF.COMPS:C10:1,2019-05-23T04:35:00,27.1690,-82.9260,25.87,11111222 
COMPS,ioos:station:USF.COMPS:C10:1,2019-05-23T06:35:00,27.1690,-82.9260,25.43,11111222 
COMPS,ioos:station:USF.COMPS:C10:1,2019-05-23T07:35:00,27.1690,-82.9260,25.23,11111222 
COMPS,ioos:station:USF.COMPS:C10:1,2019-05-23T08:35:00,27.1690,-82.9260,24.98,11111222 
COMPS,ioos:station:USF.COMPS:C10:1,2019-05-23T09:35:00,27.1690,-82.9260,24.71,11111222 
COMPS,ioos:station:USF.COMPS:C10:1,2019-05-23T10:35:00,27.1690,-82.9260,24.88,11111222 
COMPS,ioos:station:USF.COMPS:C10:1,2019-05-23T11:35:00,27.1690,-82.9260,25.18,11111222 
COMPS,ioos:station:USF.COMPS:C10:1,2019-05-23T12:35:00,27.1690,-82.9260,25.24,11111222 
COMPS,ioos:station:USF.COMPS:C10:1,2019-05-23T13:35:00,27.1690,-82.9260,25.23,11111222 
COMPS,ioos:station:USF.COMPS:C10:1,2019-05-23T14:35:00,27.1690,-82.9260,25.38,11111222 
COMPS,ioos:station:USF.COMPS:C10:1,2019-05-23T15:35:00,27.1690,-82.9260,25.84,11111222 
COMPS,ioos:station:USF.COMPS:C10:1,2019-05-23T16:35:00,27.1690,-82.9260,26.26,11111222 
COMPS,ioos:station:USF.COMPS:C10:1,2019-05-23T19:35:00,27.1690,-82.9260,27.44,11111222 
COMPS,ioos:station:USF.COMPS:C10:1,2019-05-23T20:35:00,27.1690,-82.9260,27.82,11111222 
COMPS,ioos:station:USF.COMPS:C10:1,2019-05-23T21:35:00,27.1690,-82.9260,27.3,11111222 
COMPS,ioos:station:USF.COMPS:C10:1,2019-05-23T22:35:00,27.1690,-82.9260,27.29,11111222 
COMPS,ioos:station:USF.COMPS:C10:1,2019-05-23T23:35:00,27.1690,-82.9260,27.4,11111222 
COMPS,ioos:station:USF.COMPS:C10:1,2019-05-24T01:35:00,27.1690,-82.9260,27.95,11111222 
COMPS,ioos:station:USF.COMPS:C10:1,2019-05-24T02:35:00,27.1690,-82.9260,27.16,11111222 
COMPS,ioos:station:USF.COMPS:C10:1,2019-05-24T03:35:00,27.1690,-82.9260,26.2,11111222 
COMPS,ioos:station:USF.COMPS:C10:1,2019-05-24T04:35:00,27.1690,-82.9260,25.58,11111222 
COMPS,ioos:station:USF.COMPS:C10:1,2019-05-24T05:35:00,27.1690,-82.9260,25.14,11111222 
COMPS,ioos:station:USF.COMPS:C10:1,2019-05-24T06:35:00,27.1690,-82.9260,24.82,11111222 
COMPS,ioos:station:USF.COMPS:C10:1,2019-05-24T07:35:00,27.1690,-82.9260,24.82,11111222 
COMPS,ioos:station:USF.COMPS:C10:1,2019-05-24T08:35:00,27.1690,-82.9260,24.77,11111222 
COMPS,ioos:station:USF.COMPS:C10:1,2019-05-24T09:35:00,27.1690,-82.9260,24.59,11111222 
COMPS,ioos:station:USF.COMPS:C10:1,2019-05-24T10:35:00,27.1690,-82.9260,24.44,11111222 
COMPS,ioos:station:USF.COMPS:C10:1,2019-05-24T12:35:00,27.1690,-82.9260,24.54,11111222 
COMPS,ioos:station:USF.COMPS:C10:1,2019-05-24T13:35:00,27.1690,-82.9260,24.79,11111222 
COMPS,ioos:station:USF.COMPS:C10:1,2019-05-24T14:35:00,27.1690,-82.9260,24.76,11111222 
COMPS,ioos:station:USF.COMPS:C10:1,2019-05-24T16:35:00,27.1690,-82.9260,25.75,11111222 
COMPS,ioos:station:USF.COMPS:C10:1,2019-05-24T17:35:00,27.1690,-82.9260,26.19,11111222 
COMPS,ioos:station:USF.COMPS:C10:1,2019-05-24T19:35:00,27.1690,-82.9260,26.58,11111222 
COMPS,ioos:station:USF.COMPS:C10:1,2019-05-24T20:35:00,27.1690,-82.9260,27.18,11111222 
COMPS,ioos:station:USF.COMPS:C10:1,2019-05-24T21:35:00,27.1690,-82.9260,26.63,11111222 
COMPS,ioos:station:USF.COMPS:C10:1,2019-05-24T22:35:00,27.1690,-82.9260,26.75,11111222 
COMPS,ioos:station:USF.COMPS:C10:1,2019-05-24T23:35:00,27.1690,-82.9260,26.78,11111222 
COMPS,ioos:station:USF.COMPS:C10:1,2019-05-25T00:35:00,27.1690,-82.9260,27.01,11111222 